This demonstration page uses our WeatherBlox Daily Observations layout. Learn more.

Left ArrowRight Arrow

Hourly Observations for May 15, 2019

Temp ( °F °C ) Dew Point ( °F °C ) Humidity (%) Winds ( mph kmh ) Pressure ( in mb ) Visibility ( mi km ) Precip ( " mm )
12:15 am 00:15 Clear 62 16.8 51 10.5 67 67 ESE 7 11 29.87 1012 10 16 N/A
12:35 am 00:35 Clear 61 16.1 52 11 72 72 ESE 7 11 29.88 1012 10 16 N/A
12:55 am 00:55 Clear 62 16.9 52 10.9 68 68 ESE 7 11 29.87 1012 10 16 N/A
1:15 am 01:15 Clear 63 17.3 52 11 67 67 ESE 6 9 29.88 1012 10 16 N/A
1:35 am 01:35 Mostly Cloudy 63 17 52 11 68 68 N N/A 29.90 1013 10 16 N/A
1:55 am 01:55 Mostly Cloudy 65 18.3 51 10.5 61 61 N 8 13 29.88 1012 10 16 N/A
2:15 am 02:15 Mostly Cloudy with Thunderstorms 63 17.3 52 11.1 67 67 W 6 9 29.92 1013 10 16 N/A
2:35 am 02:35 Cloudy 64 17.6 53 11.9 69 69 N 8 13 29.91 1013 7 11 0.05 1.27
2:55 am 02:55 Cloudy 60 15.8 56 13.1 84 84 NW 5 7 29.93 1014 7 11 0.20 5.08
3:15 am 03:15 Cloudy with Thunderstorms 60 15.8 55 13 84 84 ENE 35 56 29.87 1012 3 4 0.27 6.86
3:35 am 03:35 Cloudy 64 17.5 54 12.3 72 72 SE 12 19 29.86 1011 10 16 0.27 6.86
3:55 am 03:55 Mostly Cloudy 63 17.4 55 12.5 73 73 SE 8 13 29.86 1011 10 16 0.27 6.86
4:15 am 04:15 Partly Cloudy 62 16.8 55 13 78 78 SE 16 26 29.85 1011 10 16 N/A
4:35 am 04:35 Partly Cloudy with Nearby Thunderstorms 61 16.2 56 13.2 83 83 SE 12 19 29.86 1011 10 16 N/A
4:55 am 04:55 Partly Cloudy 61 16.3 56 13.2 82 82 NNE 7 11 29.87 1011 10 16 N/A
5:15 am 05:15 Clear 61 16.2 56 13.1 82 82 NNE 8 13 29.87 1011 10 16 N/A
5:35 am 05:35 Clear 60 15.8 55 13 84 84 NE 7 11 29.87 1012 10 16 N/A
5:55 am 05:55 Clear 60 15.7 55 13 84 84 ENE 5 7 29.86 1011 10 16 N/A
6:15 am 06:15 Clear 60 15.3 56 13.1 87 87 ENE 3 6 29.88 1012 10 16 N/A
6:35 am 06:35 Partly Cloudy 60 15.5 56 13.1 86 86 E 3 6 29.89 1012 10 16 N/A
6:55 am 06:55 Sunny 60 15.3 55 12.6 84 84 E 6 9 29.89 1012 10 16 N/A
7:15 am 07:15 Sunny 59 15 56 13.1 89 89 NE 3 6 29.89 1012 10 16 N/A
7:35 am 07:35 Sunny 59 15.1 56 13.5 90 90 N N/A 29.89 1012 10 16 N/A
7:55 am 07:55 Sunny 60 15.4 57 13.9 91 91 N N/A 29.90 1012 10 16 N/A
8:15 am 08:15 Sunny 63 17.3 57 14.1 82 82 E 5 7 29.88 1012 10 16 N/A
8:35 am 08:35 Sunny 64 17.6 58 14.3 81 81 E 5 7 29.89 1012 10 16 N/A
8:55 am 08:55 Sunny 64 18 58 14.3 79 79 ESE 6 9 29.88 1012 10 16 N/A
9:15 am 09:15 Sunny 67 19.3 59 14.9 76 76 E 5 7 29.87 1012 10 16 N/A
9:35 am 09:35 Sunny 67 19.7 59 14.8 73 73 ESE 6 9 29.87 1012 10 16 N/A
9:55 am 09:55 Sunny 69 20.6 59 15 70 70 ESE 7 11 29.86 1011 10 16 N/A
10:15 am 10:15 Sunny 69 20.6 60 15.4 72 72 SE 7 11 29.86 1011 10 16 N/A
10:35 am 10:35 Sunny 71 21.6 62 16.4 72 72 SE 7 11 29.85 1011 10 16 N/A
10:55 am 10:55 Sunny 73 22.9 60 15.6 64 64 SE 9 15 29.83 1010 10 16 N/A
11:15 am 11:15 Sunny 75 23.9 59 15.1 58 58 SSE 12 19 29.83 1010 10 16 N/A
11:35 am 11:35 Sunny 76 24.6 58 14.6 54 54 SSE 12 19 29.82 1010 10 16 N/A
11:55 am 11:55 Sunny 77 25 58 14.6 53 53 S 10 17 29.82 1010 10 16 N/A
12:15 pm 12:15 Sunny 77 25.1 57 14.1 51 51 SSE 10 17 29.82 1010 10 16 N/A
12:35 pm 12:35 Sunny 79 25.9 58 14.2 49 49 S 13 20 29.80 1009 10 16 N/A
12:55 pm 12:55 Sunny 80 26.4 58 14.5 48 48 S 12 19 29.80 1009 10 16 N/A
1:15 pm 13:15 Sunny 80 26.9 58 14.2 46 46 SSW 10 17 29.78 1009 10 16 N/A
1:35 pm 13:35 Sunny 81 27.1 55 12.7 41 41 S 9 15 29.77 1008 10 16 N/A
1:55 pm 13:55 Sunny 82 27.5 56 13.6 42 42 SSE 10 17 29.76 1008 10 16 N/A
2:15 pm 14:15 Sunny 82 27.7 56 13.2 41 41 SSE 9 15 29.76 1008 10 16 N/A
2:35 pm 14:35 Sunny 83 28.6 56 13.1 38 38 SSW 10 17 29.74 1007 10 16 N/A
2:55 pm 14:55 Sunny 83 28.6 56 13.2 39 39 SSE 13 20 29.73 1007 10 16 N/A
3:15 pm 15:15 Sunny 84 29 55 12.9 37 37 S 10 17 29.72 1006 10 16 N/A
3:35 pm 15:35 Sunny 84 29 54 12.4 36 36 SSE 9 15 29.72 1006 10 16 N/A
3:55 pm 15:55 Sunny 85 29.3 55 12.5 36 36 SSE 9 15 29.70 1006 10 16 N/A
4:15 pm 16:15 Sunny 85 29.5 55 12.6 35 35 SSE 7 11 29.69 1005 10 16 N/A
4:35 pm 16:35 Sunny 85 29.6 56 13.1 36 36 S 9 15 29.68 1005 10 16 N/A
4:55 pm 16:55 Sunny 85 29.4 56 13.1 37 37 S 12 19 29.68 1005 10 16 N/A
5:15 pm 17:15 Sunny 85 29.5 57 14 39 39 S 16 26 29.67 1005 10 16 N/A
5:35 pm 17:35 Sunny 85 29.4 57 14 39 39 S 14 22 29.67 1005 10 16 N/A
5:55 pm 17:55 Sunny 85 29.4 56 13.6 38 38 S 15 24 29.67 1005 10 16 N/A
6:15 pm 18:15 Sunny 84 29.1 56 13.3 38 38 S 12 19 29.67 1005 10 16 N/A
6:35 pm 18:35 Sunny 84 28.9 57 13.8 40 40 S 12 19 29.67 1005 10 16 N/A
6:55 pm 18:55 Sunny 83 28.5 58 14.3 42 42 SSE 9 15 29.66 1004 10 16 N/A
7:15 pm 19:15 Sunny 82 27.9 59 14.9 45 45 SSE 8 13 29.66 1005 10 16 N/A
7:35 pm 19:35 Sunny 81 27.3 60 15.6 49 49 SSE 7 11 29.66 1004 10 16 N/A
7:55 pm 19:55 Sunny 79 26.3 61 15.9 53 53 SSE 7 11 29.67 1005 10 16 N/A
8:15 pm 20:15 Sunny 77 25 61 16.2 58 58 SSE 5 7 29.69 1005 10 16 N/A
8:35 pm 20:35 Sunny 75 23.7 62 16.5 64 64 SSE 5 7 29.70 1006 10 16 N/A
8:55 pm 20:55 Clear 73 22.9 62 16.5 67 67 SSE 6 9 29.70 1006 10 16 N/A
9:15 pm 21:15 Clear 72 22.2 61 16.3 69 69 SE 8 13 29.71 1006 10 16 N/A
9:35 pm 21:35 Clear 71 21.4 62 16.5 74 74 SE 9 15 29.72 1006 10 16 N/A
9:55 pm 21:55 Clear 69 20.3 62 16.5 79 79 SSE 7 11 29.73 1007 10 16 N/A
10:15 pm 22:15 Clear 68 20.1 62 16.5 80 80 SSE 8 13 29.74 1007 10 16 N/A
10:35 pm 22:35 Clear 68 20.1 62 16.7 81 81 S 5 7 29.75 1007 10 16 N/A
10:55 pm 22:55 Clear 69 20.7 62 16.8 78 78 SSW 6 9 29.73 1007 10 16 N/A
11:15 pm 23:15 Clear 68 20.2 62 16.7 80 80 SSE 5 7 29.73 1007 10 16 N/A
11:35 pm 23:35 Clear 67 19.6 62 16.8 84 84 SSE 6 9 29.73 1007 10 16 N/A
11:55 pm 23:55 Clear 66 18.9 62 16.8 88 88 N N/A 29.74 1007 10 16 N/A

Powered by AerisWeather